Tallulah, LA

9:24 AM CST on January 24, 2017 (GMT -0600)
Vicksburg Tallulah Regional

Weather History for KTVR - October, 2010

Change the Weather History Date:

Sunday, October 10, 2010

  Actual Average Record
Temperature  
Mean Temperature 73 °F 68 °F  
Max Temperature 93 °F 80 °F 93 °F (1963)
Min Temperature 53 °F 55 °F 31 °F (1951)
Degree Days  
Heating Degree Days 0 2  
Month to date heating degree days 25 13  
Since 1 July heating degree days 25 18  
Cooling Degree Days 8 4  
Month to date cooling degree days 29 52  
Year to date cooling degree days 2634 2149  
Growing Degree Days 22 (Base 50)    
Moisture  
Dew Point 51 °F    
Average Humidity 57    
Maximum Humidity 93    
Minimum Humidity 20    
Precipitation  
Precipitation 0.00 in 0.15 in 4.11 in (2004)
Month to date precipitation 0.00 1.38  
Year to date precipitation 26.03 40.84  
Sea Level Pressure  
Sea Level Pressure 29.98 in    
Wind  
Wind Speed 3 mph (SE)    
Max Wind Speed 3 mph    
Max Gust Speed 6 mph    
Visibility 10 miles    
Events      
T = Trace of Precipitation, MM = Missing Value Source: NWS Daily Summary

Daily Weather History Graph

Daily Weather History Graph

Search for Another Location

Airport or City:

Trip Planner

Search our weather history database for the weather conditions in past years. The results will help you decide how hot, cold, wet, or windy it might be!

Date:

Astronomy

Oct. 10, 2010 Rise Set
Actual Time 7:04 AM CDT 6:37 PM CDT
Civil Twilight 6:39 AM CDT 7:02 PM CDT
Nautical Twilight 6:11 AM CDT 7:30 PM CDT
Astronomical Twilight 5:42 AM CDT 7:58 PM CDT
Moon 10:19 AM CDT (10/10) 8:38 PM CDT (10/10)
Length of Visible Light 12h 22m
Length of Day
11h 33m
Waxing Crescent, 12% of the Moon is Illuminated
Oct 10
Waxing Crescent
Oct 14
First Quarter
Oct 22
Full
Oct 30
Last Quarter
Nov 5
New

Hourly Weather History & Observations

Time (CDT) Temp. Heat Index Dew Point Humidity Pressure Visibility Wind Dir Wind Speed Gust Speed Precip Events Conditions
12:53 AM 57.9 °F - 54.0 °F 87% 30.02 in 10.0 mi Calm Calm - N/A   Clear
1:53 AM 59.0 °F - 48.9 °F 69% 30.02 in 10.0 mi ESE 4.6 mph - N/A   Clear
2:53 AM 55.0 °F - 51.1 °F 86% 30.01 in 9.0 mi Calm Calm - N/A   Clear
3:53 AM 60.1 °F - 53.1 °F 78% 30.00 in 10.0 mi ESE 3.5 mph - N/A   Clear
4:53 AM 55.0 °F - 52.0 °F 89% 30.01 in 7.0 mi SE 3.5 mph - N/A   Clear
5:53 AM 54.0 °F - 51.1 °F 90% 30.02 in 8.0 mi Calm Calm - N/A   Clear
6:53 AM 54.0 °F - 52.0 °F 93% 30.03 in 9.0 mi SSE 3.5 mph - N/A   Clear
7:53 AM 57.9 °F - 54.0 °F 87% 30.04 in 7.0 mi Calm Calm - N/A   Clear
8:53 AM 68.0 °F - 55.9 °F 65% 30.05 in 10.0 mi Variable 3.5 mph - N/A   Clear
9:53 AM 75.0 °F - 54.0 °F 48% 30.04 in 10.0 mi Calm Calm - N/A   Clear
10:53 AM 82.9 °F 81.8 °F 53.1 °F 36% 30.03 in 10.0 mi Calm Calm - N/A   Clear
11:53 AM 88.0 °F - 52.0 °F 29% 30.01 in 10.0 mi SE 3.5 mph - 0.00 in   Clear
12:53 PM 90.0 °F - 48.9 °F 24% 29.99 in 10.0 mi SSE 3.5 mph - N/A   Partly Cloudy
1:53 PM 89.1 °F - 45.0 °F 22% 29.95 in 10.0 mi SE 4.6 mph - N/A   Overcast
2:53 PM 90.0 °F - 46.9 °F 23% 29.93 in 10.0 mi ENE 5.8 mph - N/A   Overcast
3:53 PM 91.9 °F - 45.0 °F 20% 29.91 in 10.0 mi East 6.9 mph - N/A   Mostly Cloudy
4:53 PM 91.0 °F - 45.0 °F 20% 29.90 in 10.0 mi SW 6.9 mph - N/A   Scattered Clouds
5:53 PM 86.0 °F - 46.9 °F 26% 29.90 in 10.0 mi WSW 3.5 mph - N/A   Clear
6:53 PM 75.9 °F - 48.9 °F 38% 29.91 in 10.0 mi Calm Calm - N/A   Clear
7:53 PM 71.1 °F - 51.1 °F 49% 29.92 in 10.0 mi Calm Calm - N/A   Clear
8:53 PM 69.1 °F - 54.0 °F 58% 29.93 in 10.0 mi SSW 3.5 mph - N/A   Clear
9:53 PM 72.0 °F - 53.1 °F 51% 29.94 in 10.0 mi Calm Calm - N/A   Partly Cloudy
10:53 PM 66.0 °F - 52.0 °F 60% 29.94 in 10.0 mi Calm Calm - N/A   Partly Cloudy
11:53 PM 64.9 °F - 53.1 °F 65% 29.94 in 10.0 mi Calm Calm - N/A   Unknown